Find GPS IIA-17

NORAD ID: 23953 Int'l Des: 1996-041 Owner: AFSMC Country: US Constellation: GPS operational
MEOCIRCULAR

現在のビュー

3D地球を読み込み中...

About GPS IIA-17

GPS IIA-17 (NORAD 23953) is a GPS constellation satellite launched Jul 16, 1996 by AFSMC of US. It operates in MEO, CIRCULAR orbit with a mass of 860.00 kg.

GPS IIA-17について

説明を読み込み中...

次回通過

Passes for default location (London). Set your location on the main map for personalized predictions.

高度履歴

Loading altitude history...

軌道要素

1 23953U 96041A 26194.27990169 -.00000049 00000-0 00000-0 0 9991
2 23953 56.0427 45.6770 0062723 108.6751 255.9345 1.88695427215286
Epoch: Jul 13, 2026 • Age: 32 hours

現在のステータス

高度 21298.2 km
遠地点 / 近地点 N/A
速度 3.79 km/s
衛星直下点 -18.07°S, 79.31°E
打ち上げ日 Jul 16, 1996
運用期間 29.9 years
タイプ navigation

技術仕様

分類 Payload
質量 860.00 kg
乾燥質量 860.00 kg
総質量 1881.00 kg
長さ 2.40 m
直径 1.80 m
スパン 5.30 m
形状 Box + 2 Pan
製造者 RWISB
バスタイプ GPS IIA
フェーズステータス In Orbit
所有者/国 AFSMC/US

Most Searched